This demonstration page uses our WeatherBlox Daily Observations layout. Learn more.

Left ArrowRight Arrow

39.29038, -76.61219

Hourly Observations for September 8, 2020

Temp ( °F °C ) Dew Point ( °F °C ) Humidity (%) Winds ( mph kmh ) Pressure ( in mb ) Visibility ( mi km ) Precip ( " mm )
12:54 am 00:54 Clear 63 17.2 60 15.6 90 90 Calm 30.05 1018 10 16 0.00 0.00
1:54 am 01:54 Clear 66 18.9 61 16.1 84 84 Calm 30.03 1017 10 16 0.00 0.00
2:54 am 02:54 Clear 62 16.7 59 15 90 90 Calm 30.04 1017 10 16 0.00 0.00
3:54 am 03:54 Mostly Clear 60 15.6 58 14.4 93 93 WNW 5 7 30.06 1018 10 16 0.00 0.00
4:54 am 04:54 Mostly Clear 62 16.7 59 15 90 90 Calm 30.07 1018 10 16 0.00 0.00
5:37 am 05:37 Mostly Cloudy 61 16.1 59 15 93 93 Calm 30.09 1019 10 16 0.00 0.00
5:54 am 05:54 Mostly Cloudy 63 17.2 60 15.6 90 90 WNW 3 6 30.08 1019 10 16 0.00 0.00
6:29 am 06:29 Partly Cloudy 63 17.2 59 15 87 87 WNW 3 6 30.09 1019 10 16 0.00 0.00
6:42 am 06:42 Mostly Cloudy 62 16.7 59 15 90 90 W 3 6 30.10 1019 10 16 0.00 0.00
6:54 am 06:54 Mostly Cloudy 64 17.8 60 15.6 87 87 Calm 30.09 1019 10 16 0.00 0.00
7:10 am 07:10 Partly Cloudy 63 17.2 60 15.6 90 90 W 5 7 30.10 1019 10 16 0.00 0.00
7:54 am 07:54 Partly Cloudy 68 20 63 17.2 84 84 Calm 30.12 1020 10 16 0.00 0.00
8:41 am 08:41 Mostly Cloudy 72 22.2 65 18.3 79 79 Calm 30.12 1020 10 16 0.00 0.00
8:54 am 08:54 Partly Cloudy 73 22.8 66 18.9 79 79 ENE 3 6 30.13 1020 10 16 0.00 0.00
9:54 am 09:54 Partly Cloudy 76 24.4 68 20 77 77 ESE 5 7 30.14 1021 10 16 0.00 0.00
10:54 am 10:54 Partly Cloudy 79 26.1 67 19.4 67 67 ESE 7 11 30.16 1021 10 16 0.00 0.00
11:54 am 11:54 Partly Cloudy 81 27.2 67 19.4 62 62 E 5 7 30.16 1021 10 16 0.00 0.00
12:54 pm 12:54 Partly Cloudy 82 27.8 66 18.9 58 58 ENE 7 11 30.14 1021 10 16 0.00 0.00
1:54 pm 13:54 Partly Cloudy 83 28.3 65 18.3 55 55 ENE 7 11 30.15 1021 10 16 0.00 0.00
2:54 pm 14:54 Partly Cloudy 82 27.8 67 19.4 60 60 E 7 11 30.13 1020 10 16 0.00 0.00
3:54 pm 15:54 Partly Cloudy 84 28.9 67 19.4 57 57 E 9 15 30.12 1020 10 16 0.00 0.00
4:54 pm 16:54 Mostly Cloudy 83 28.3 67 19.4 59 59 ESE 7 11 30.11 1020 10 16 0.00 0.00
5:54 pm 17:54 Mostly Cloudy 82 27.8 67 19.4 60 60 E 7 11 30.12 1020 10 16 0.00 0.00
6:54 pm 18:54 Mostly Cloudy 81 27.2 66 18.9 61 61 E 7 11 30.12 1020 10 16 0.00 0.00
7:54 pm 19:54 Mostly Cloudy 79 26.1 68 20 69 69 E 6 9 30.13 1020 10 16 0.00 0.00
8:54 pm 20:54 Mostly Cloudy 77 25 67 19.4 71 71 E 6 9 30.14 1021 10 16 0.00 0.00
9:54 pm 21:54 Mostly Cloudy 75 23.9 67 19.4 76 76 E 7 11 30.15 1021 10 16 0.00 0.00
10:54 pm 22:54 Mostly Cloudy 74 23.3 68 20 82 82 E 5 7 30.16 1021 10 16 0.00 0.00
11:54 pm 23:54 Cloudy 74 23.3 68 20 82 82 E 6 9 30.17 1022 10 16 0.00 0.00

Powered by AerisWeather